Time,TemperatureF,DewpointF,PressureIn,WindDirection,WindDirectionDegrees,WindSpeedMPH,WindSpeedGustMPH,Humidity,HourlyPrecipIn,Conditions,Clouds,dailyrainin,SoftwareType,DateUTC
2013-12-20 00:00:00,29.3,18.6,-100.00,WSW,246,0.3,3.2,63,0.00,n/a,n/a,-99.99,Henriksen +1-Wire,2013-12-20 05:00:00,
2013-12-20 00:10:00,28.5,16.5,-100.00,WSW,246,0.0,2.4,60,0.00,n/a,n/a,-99.99,Henriksen +1-Wire,2013-12-20 05:10:00,
2013-12-20 00:20:00,28.3,13.4,-100.00,WSW,246,0.0,3.2,53,0.00,n/a,n/a,-99.99,Henriksen +1-Wire,2013-12-20 05:20:00,
2013-12-20 00:30:00,28.6,11.2,-100.00,WSW,246,0.0,0.0,48,0.00,n/a,n/a,-99.99,Henriksen +1-Wire,2013-12-20 05:30:00,
2013-12-20 00:40:00,28.5,19.8,-100.00,WSW,246,0.0,0.0,69,0.00,n/a,n/a,-99.99,Henriksen +1-Wire,2013-12-20 05:40:00,
2013-12-20 00:50:00,28.6,24.4,-100.00,WSW,246,0.0,0.0,84,0.00,n/a,n/a,-99.99,Henriksen +1-Wire,2013-12-20 05:50:00,
2013-12-20 01:00:00,28.4,25.7,-100.00,WSW,246,0.0,0.0,89,0.00,n/a,n/a,-99.99,Henriksen +1-Wire,2013-12-20 06:00:00,
2013-12-20 01:10:00,28.1,26.2,-100.00,WSW,246,0.0,0.0,92,0.00,n/a,n/a,-99.99,Henriksen +1-Wire,2013-12-20 06:10:00,
2013-12-20 01:20:00,27.9,26.6,-100.00,WSW,246,0.0,0.0,94,0.00,n/a,n/a,-99.99,Henriksen +1-Wire,2013-12-20 06:20:00,
2013-12-20 01:30:00,28.2,27.0,-100.00,WSW,246,0.0,0.0,95,0.00,n/a,n/a,-99.99,Henriksen +1-Wire,2013-12-20 06:30:00,
2013-12-20 01:40:00,28.1,26.8,-100.00,WSW,246,0.0,0.0,94,0.00,n/a,n/a,-99.99,Henriksen +1-Wire,2013-12-20 06:40:00,
2013-12-20 01:50:00,28.3,26.8,-100.00,WSW,246,0.0,0.0,93,0.00,n/a,n/a,-99.99,Henriksen +1-Wire,2013-12-20 06:50:00,
2013-12-20 02:00:00,28.4,26.8,-100.00,WSW,246,0.0,0.0,93,0.00,n/a,n/a,-99.99,Henriksen +1-Wire,2013-12-20 07:00:00,
2013-12-20 02:10:00,28.3,26.8,-100.00,WSW,246,0.0,0.0,93,0.00,n/a,n/a,-99.99,Henriksen +1-Wire,2013-12-20 07:10:00,
2013-12-20 02:20:00,28.1,26.7,-100.00,WSW,246,0.0,0.0,94,0.00,n/a,n/a,-99.99,Henriksen +1-Wire,2013-12-20 07:20:00,
2013-12-20 02:30:00,27.7,26.5,-100.00,WSW,246,0.0,0.0,95,0.00,n/a,n/a,-99.99,Henriksen +1-Wire,2013-12-20 07:30:00,
2013-12-20 02:40:00,27.3,26.4,-100.00,WSW,246,0.0,0.0,96,0.00,n/a,n/a,-99.99,Henriksen +1-Wire,2013-12-20 07:40:00,
2013-12-20 02:50:00,27.2,26.4,-100.00,WSW,246,0.0,0.0,97,0.00,n/a,n/a,-99.99,Henriksen +1-Wire,2013-12-20 07:50:00,
2013-12-20 03:00:00,27.0,26.5,-100.00,WSW,246,0.0,0.0,98,0.00,n/a,n/a,-99.99,Henriksen +1-Wire,2013-12-20 08:00:00,
2013-12-20 03:10:00,26.9,26.6,-100.00,WSW,246,0.0,0.0,98,0.00,n/a,n/a,-99.99,Henriksen +1-Wire,2013-12-20 08:10:00,
2013-12-20 03:20:00,26.9,26.8,-100.00,WSW,246,0.0,0.0,99,0.00,n/a,n/a,-99.99,Henriksen +1-Wire,2013-12-20 08:20:00,
2013-12-20 03:30:00,26.9,26.8,-100.00,WSW,246,0.0,0.0,99,0.00,n/a,n/a,-99.99,Henriksen +1-Wire,2013-12-20 08:30:00,
2013-12-20 03:40:00,27.0,26.8,-100.00,WSW,246,0.0,0.0,98,0.00,n/a,n/a,-99.99,Henriksen +1-Wire,2013-12-20 08:40:00,
2013-12-20 03:50:00,27.1,26.9,-100.00,WSW,246,0.0,0.0,99,0.00,n/a,n/a,-99.99,Henriksen +1-Wire,2013-12-20 08:50:00,
2013-12-20 04:00:00,27.9,27.7,-100.00,WSW,246,0.0,0.0,99,0.00,n/a,n/a,-99.99,Henriksen +1-Wire,2013-12-20 09:00:00,
2013-12-20 04:10:00,27.9,27.7,-100.00,WSW,246,0.0,0.0,99,0.00,n/a,n/a,-99.99,Henriksen +1-Wire,2013-12-20 09:10:00,
2013-12-20 04:20:00,27.6,27.3,-100.00,SW,215,0.0,0.0,98,0.00,n/a,n/a,-99.99,Henriksen +1-Wire,2013-12-20 09:20:00,
2013-12-20 04:30:00,27.4,27.1,-100.00,SSE,156,0.0,0.0,98,0.00,n/a,n/a,-99.99,Henriksen +1-Wire,2013-12-20 09:30:00,
2013-12-20 04:40:00,27.5,27.2,-100.00,SSE,156,0.0,0.0,98,0.00,n/a,n/a,-99.99,Henriksen +1-Wire,2013-12-20 09:40:00,
2013-12-20 04:50:00,27.7,27.5,-100.00,SSE,156,0.0,0.0,99,0.00,n/a,n/a,-99.99,Henriksen +1-Wire,2013-12-20 09:50:00,
2013-12-20 05:00:00,27.7,27.5,-100.00,SSE,156,0.0,0.0,99,0.00,n/a,n/a,-99.99,Henriksen +1-Wire,2013-12-20 10:00:00,
2013-12-20 05:10:00,27.8,27.4,-100.00,SSE,156,0.0,0.0,98,0.00,n/a,n/a,-99.99,Henriksen +1-Wire,2013-12-20 10:10:00,
2013-12-20 05:20:00,27.7,27.2,-100.00,SSE,156,0.0,0.0,98,0.00,n/a,n/a,-99.99,Henriksen +1-Wire,2013-12-20 10:20:00,
2013-12-20 05:30:00,28.0,27.5,-100.00,SSE,156,0.0,0.0,98,0.00,n/a,n/a,-99.99,Henriksen +1-Wire,2013-12-20 10:30:00,
2013-12-20 05:40:00,27.8,27.5,-100.00,SSE,156,0.0,0.0,98,0.00,n/a,n/a,-99.99,Henriksen +1-Wire,2013-12-20 10:40:00,
2013-12-20 05:50:00,28.0,27.8,-100.00,SSE,156,0.0,0.0,99,0.00,n/a,n/a,-99.99,Henriksen +1-Wire,2013-12-20 10:50:00,
2013-12-20 06:00:00,28.0,27.9,-100.00,SSE,156,0.0,0.0,99,0.00,n/a,n/a,-99.99,Henriksen +1-Wire,2013-12-20 11:00:00,
2013-12-20 06:10:00,28.3,28.2,-100.00,SSE,156,0.0,0.0,99,0.00,n/a,n/a,-99.99,Henriksen +1-Wire,2013-12-20 11:10:00,
2013-12-20 06:20:00,28.4,28.4,-100.00,SSE,156,0.0,0.0,100,0.00,n/a,n/a,-99.99,Henriksen +1-Wire,2013-12-20 11:20:00,
2013-12-20 06:30:00,28.5,28.5,-100.00,SSE,156,0.0,0.0,100,0.00,n/a,n/a,-99.99,Henriksen +1-Wire,2013-12-20 11:30:00,
2013-12-20 06:40:00,28.9,28.9,-100.00,SSE,156,0.0,0.0,100,0.00,n/a,n/a,-99.99,Henriksen +1-Wire,2013-12-20 11:40:00,
2013-12-20 06:50:00,28.7,28.7,-100.00,SSE,156,0.0,0.0,100,0.00,n/a,n/a,-99.99,Henriksen +1-Wire,2013-12-20 11:50:00,
2013-12-20 07:00:00,28.8,28.8,-100.00,SSE,156,0.0,0.0,100,0.00,n/a,n/a,-99.99,Henriksen +1-Wire,2013-12-20 12:00:00,
2013-12-20 07:10:00,28.7,28.7,-100.00,SSE,156,0.0,0.0,100,0.00,n/a,n/a,-99.99,Henriksen +1-Wire,2013-12-20 12:10:00,
2013-12-20 07:20:00,29.0,29.0,-100.00,SSE,156,0.0,0.0,100,0.00,n/a,n/a,-99.99,Henriksen +1-Wire,2013-12-20 12:20:00,
2013-12-20 07:30:00,29.3,29.3,-100.00,SSE,156,0.0,0.0,100,0.00,n/a,n/a,-99.99,Henriksen +1-Wire,2013-12-20 12:30:00,
2013-12-20 07:40:00,29.5,29.5,-100.00,SSE,156,0.0,0.0,99,0.00,n/a,n/a,-99.99,Henriksen +1-Wire,2013-12-20 12:40:00,
2013-12-20 07:50:00,29.6,29.6,-100.00,SSE,156,0.0,0.0,100,0.00,n/a,n/a,-99.99,Henriksen +1-Wire,2013-12-20 12:50:00,
2013-12-20 08:00:00,29.8,29.6,-100.00,SSE,156,0.0,0.0,99,0.00,n/a,n/a,-99.99,Henriksen +1-Wire,2013-12-20 13:00:00,
2013-12-20 08:10:00,30.2,29.8,-100.00,SSE,156,0.0,0.0,98,0.00,n/a,n/a,-99.99,Henriksen +1-Wire,2013-12-20 13:10:00,
2013-12-20 08:20:00,30.6,29.9,-100.00,SSE,156,0.0,0.0,97,0.00,n/a,n/a,-99.99,Henriksen +1-Wire,2013-12-20 13:20:00,
2013-12-20 08:30:00,31.2,30.4,-100.00,SSE,156,0.0,0.0,96,0.00,n/a,n/a,-99.99,Henriksen +1-Wire,2013-12-20 13:30:00,
2013-12-20 08:40:00,32.0,30.6,-100.00,SSE,156,0.0,0.0,94,0.00,n/a,n/a,-99.99,Henriksen +1-Wire,2013-12-20 13:40:00,
2013-12-20 08:50:00,32.7,30.7,-100.00,SSE,156,0.0,0.0,92,0.00,n/a,n/a,-99.99,Henriksen +1-Wire,2013-12-20 13:50:00,
2013-12-20 09:00:00,33.1,30.4,-100.00,SSE,156,0.0,0.0,89,0.00,n/a,n/a,-99.99,Henriksen +1-Wire,2013-12-20 14:00:00,
2013-12-20 09:10:00,33.6,30.5,-100.00,SSE,156,0.0,0.0,88,0.00,n/a,n/a,-99.99,Henriksen +1-Wire,2013-12-20 14:10:00,
2013-12-20 09:20:00,34.6,30.9,-100.00,SSE,156,0.0,0.0,86,0.00,n/a,n/a,-99.99,Henriksen +1-Wire,2013-12-20 14:20:00,
2013-12-20 09:30:00,35.7,31.4,-100.00,SSE,156,0.0,0.0,84,0.01,n/a,n/a,-99.99,Henriksen +1-Wire,2013-12-20 14:30:00,
2013-12-20 09:40:00,36.4,31.3,-100.00,SSE,156,0.0,0.0,81,0.01,n/a,n/a,-99.99,Henriksen +1-Wire,2013-12-20 14:40:00,
2013-12-20 09:50:00,37.0,31.2,-100.00,South,176,0.0,0.0,79,0.01,n/a,n/a,-99.99,Henriksen +1-Wire,2013-12-20 14:50:00,
2013-12-20 10:00:00,37.3,31.1,-100.00,South,179,0.0,0.0,78,0.01,n/a,n/a,-99.99,Henriksen +1-Wire,2013-12-20 15:00:00,
2013-12-20 10:10:00,37.4,31.5,-100.00,South,179,0.0,0.0,78,0.01,n/a,n/a,-99.99,Henriksen +1-Wire,2013-12-20 15:10:00,
2013-12-20 10:20:00,37.8,31.9,-100.00,South,179,0.0,0.0,79,0.01,n/a,n/a,-99.99,Henriksen +1-Wire,2013-12-20 15:20:00,
2013-12-20 10:30:00,37.7,31.8,-100.00,SSE,148,0.0,0.0,79,0.00,n/a,n/a,-99.99,Henriksen +1-Wire,2013-12-20 15:30:00,
2013-12-20 10:40:00,38.2,32.1,-100.00,ESE,116,0.0,0.0,78,0.00,n/a,n/a,-99.99,Henriksen +1-Wire,2013-12-20 15:40:00,
2013-12-20 10:50:00,38.9,32.3,-100.00,SE,132,0.0,0.0,76,0.00,n/a,n/a,-99.99,Henriksen +1-Wire,2013-12-20 15:50:00,
2013-12-20 11:00:00,39.5,32.4,-100.00,SSW,200,0.0,0.0,75,0.00,n/a,n/a,-99.99,Henriksen +1-Wire,2013-12-20 16:00:00,
2013-12-20 11:10:00,40.0,32.5,-100.00,SE,139,0.0,0.0,74,0.01,n/a,n/a,-99.99,Henriksen +1-Wire,2013-12-20 16:10:00,
2013-12-20 11:20:00,41.1,33.0,-100.00,West,263,0.0,0.8,72,0.01,n/a,n/a,-99.99,Henriksen +1-Wire,2013-12-20 16:20:00,
2013-12-20 11:30:00,41.7,32.7,-100.00,West,269,0.0,0.0,70,0.02,n/a,n/a,-99.99,Henriksen +1-Wire,2013-12-20 16:30:00,
2013-12-20 11:40:00,41.7,32.5,-100.00,West,264,0.7,4.8,69,0.02,n/a,n/a,-99.99,Henriksen +1-Wire,2013-12-20 16:40:00,
2013-12-20 11:50:00,41.2,32.4,-100.00,WSW,243,0.1,4.9,70,0.03,n/a,n/a,-99.99,Henriksen +1-Wire,2013-12-20 16:50:00,
2013-12-20 12:00:00,40.3,32.4,-100.00,SE,131,0.0,0.0,73,0.04,n/a,n/a,-99.99,Henriksen +1-Wire,2013-12-20 17:00:00,
2013-12-20 12:10:00,40.2,33.0,-100.00,ESE,116,0.3,3.5,75,0.04,n/a,n/a,-99.99,Henriksen +1-Wire,2013-12-20 17:10:00,
2013-12-20 12:20:00,40.4,33.3,-100.00,NW,307,0.0,4.1,75,0.05,n/a,n/a,-99.99,Henriksen +1-Wire,2013-12-20 17:20:00,
2013-12-20 12:30:00,40.6,33.4,-100.00,West,275,1.1,4.0,75,0.05,n/a,n/a,-99.99,Henriksen +1-Wire,2013-12-20 17:30:00,
2013-12-20 12:40:00,41.7,34.1,-100.00,WSW,258,0.3,3.2,74,0.06,n/a,n/a,-99.99,Henriksen +1-Wire,2013-12-20 17:40:00,
2013-12-20 12:50:00,41.8,33.6,-100.00,WNW,291,0.0,0.0,72,0.06,n/a,n/a,-99.99,Henriksen +1-Wire,2013-12-20 17:50:00,
2013-12-20 13:00:00,41.4,33.4,-100.00,WNW,291,0.1,2.4,72,0.06,n/a,n/a,-99.99,Henriksen +1-Wire,2013-12-20 18:00:00,
2013-12-20 13:10:00,40.9,33.1,-100.00,WNW,291,0.9,2.4,73,0.07,n/a,n/a,-99.99,Henriksen +1-Wire,2013-12-20 18:10:00,
2013-12-20 13:20:00,40.6,33.2,-100.00,WNW,291,0.0,1.6,74,0.07,n/a,n/a,-99.99,Henriksen +1-Wire,2013-12-20 18:20:00,
2013-12-20 13:30:00,40.0,33.5,-100.00,WNW,291,0.0,0.0,77,0.07,n/a,n/a,-99.99,Henriksen +1-Wire,2013-12-20 18:30:00,
2013-12-20 13:40:00,39.5,33.6,-100.00,WNW,291,0.0,0.0,79,0.07,n/a,n/a,-99.99,Henriksen +1-Wire,2013-12-20 18:40:00,
2013-12-20 13:50:00,40.4,34.1,-100.00,WNW,291,0.0,0.0,78,0.07,n/a,n/a,-99.99,Henriksen +1-Wire,2013-12-20 18:50:00,
2013-12-20 14:00:00,39.8,33.7,-100.00,WNW,291,0.0,0.0,78,0.06,n/a,n/a,-99.99,Henriksen +1-Wire,2013-12-20 19:00:00,
2013-12-20 14:10:00,39.1,33.6,-100.00,WNW,291,0.0,0.0,80,0.06,n/a,n/a,-99.99,Henriksen +1-Wire,2013-12-20 19:10:00,
2013-12-20 14:20:00,38.6,33.7,-100.00,WNW,291,0.0,0.0,82,0.06,n/a,n/a,-99.99,Henriksen +1-Wire,2013-12-20 19:20:00,
2013-12-20 14:30:00,38.1,33.6,-100.00,WNW,291,0.0,0.0,83,0.05,n/a,n/a,-99.99,Henriksen +1-Wire,2013-12-20 19:30:00,
2013-12-20 14:40:00,37.7,33.7,-100.00,WNW,291,0.0,0.0,85,0.05,n/a,n/a,-99.99,Henriksen +1-Wire,2013-12-20 19:40:00,
2013-12-20 14:50:00,37.8,34.0,-100.00,WNW,291,0.0,0.0,85,0.05,n/a,n/a,-99.99,Henriksen +1-Wire,2013-12-20 19:50:00,
2013-12-20 15:00:00,37.4,33.7,-100.00,WNW,291,0.0,0.0,86,0.04,n/a,n/a,-99.99,Henriksen +1-Wire,2013-12-20 20:00:00,
2013-12-20 15:10:00,37.0,33.7,-100.00,WNW,291,0.0,0.0,87,0.04,n/a,n/a,-99.99,Henriksen +1-Wire,2013-12-20 20:10:00,
2013-12-20 15:20:00,36.7,33.6,-100.00,WNW,291,0.0,0.0,88,0.03,n/a,n/a,-99.99,Henriksen +1-Wire,2013-12-20 20:20:00,
2013-12-20 15:30:00,36.2,33.5,-100.00,WNW,291,0.0,0.0,89,0.04,n/a,n/a,-99.99,Henriksen +1-Wire,2013-12-20 20:30:00,
2013-12-20 15:40:00,35.5,33.4,-100.00,WNW,291,0.0,0.0,92,0.04,n/a,n/a,-99.99,Henriksen +1-Wire,2013-12-20 20:40:00,
2013-12-20 15:50:00,35.3,34.0,-100.00,WNW,291,0.0,0.0,95,0.03,n/a,n/a,-99.99,Henriksen +1-Wire,2013-12-20 20:50:00,
2013-12-20 16:00:00,34.9,34.3,-100.00,WNW,291,0.0,0.0,97,0.04,n/a,n/a,-99.99,Henriksen +1-Wire,2013-12-20 21:00:00,
2013-12-20 16:10:00,34.6,34.4,-100.00,WNW,291,0.0,0.0,99,0.03,n/a,n/a,-99.99,Henriksen +1-Wire,2013-12-20 21:10:00,
2013-12-20 16:20:00,34.4,34.3,-100.00,WNW,291,0.0,0.0,99,0.04,n/a,n/a,-99.99,Henriksen +1-Wire,2013-12-20 21:20:00,
2013-12-20 16:30:00,34.2,34.2,-100.00,WNW,291,0.0,0.0,99,0.03,n/a,n/a,-99.99,Henriksen +1-Wire,2013-12-20 21:30:00,
2013-12-20 16:40:00,34.4,34.4,-100.00,WNW,291,0.0,0.0,100,0.02,n/a,n/a,-99.99,Henriksen +1-Wire,2013-12-20 21:40:00,
2013-12-20 16:50:00,34.2,34.2,-100.00,WNW,291,0.0,0.0,100,0.03,n/a,n/a,-99.99,Henriksen +1-Wire,2013-12-20 21:50:00,
2013-12-20 17:00:00,34.3,34.3,-100.00,WNW,291,0.0,0.0,100,0.02,n/a,n/a,-99.99,Henriksen +1-Wire,2013-12-20 22:00:00,
2013-12-20 17:10:00,34.0,34.0,-100.00,WNW,291,0.0,0.0,100,0.02,n/a,n/a,-99.99,Henriksen +1-Wire,2013-12-20 22:10:00,
2013-12-20 17:20:00,33.9,33.9,-100.00,WNW,291,0.0,0.0,100,0.02,n/a,n/a,-99.99,Henriksen +1-Wire,2013-12-20 22:20:00,
2013-12-20 17:30:00,33.6,33.6,-100.00,WNW,291,0.0,0.0,100,0.02,n/a,n/a,-99.99,Henriksen +1-Wire,2013-12-20 22:30:00,
2013-12-20 17:40:00,33.5,33.5,-100.00,WNW,291,0.0,0.0,100,0.02,n/a,n/a,-99.99,Henriksen +1-Wire,2013-12-20 22:40:00,
2013-12-20 17:50:00,33.5,33.5,-100.00,WNW,291,0.0,0.0,100,0.02,n/a,n/a,-99.99,Henriksen +1-Wire,2013-12-20 22:50:00,
2013-12-20 18:00:00,33.5,33.5,-100.00,WNW,282,0.0,0.0,100,0.02,n/a,n/a,-99.99,Henriksen +1-Wire,2013-12-20 23:00:00,
2013-12-20 18:10:00,33.4,33.4,-100.00,West,269,0.0,0.0,100,0.01,n/a,n/a,-99.99,Henriksen +1-Wire,2013-12-20 23:10:00,
2013-12-20 18:20:00,33.4,33.4,-100.00,West,269,0.0,0.0,100,0.01,n/a,n/a,-99.99,Henriksen +1-Wire,2013-12-20 23:20:00,
2013-12-20 18:30:00,33.0,33.0,-100.00,West,269,0.0,0.0,100,0.01,n/a,n/a,-99.99,Henriksen +1-Wire,2013-12-20 23:30:00,
2013-12-20 18:40:00,32.9,32.9,-100.00,West,269,0.0,0.0,100,0.01,n/a,n/a,-99.99,Henriksen +1-Wire,2013-12-20 23:40:00,
2013-12-20 18:50:00,32.8,32.8,-100.00,West,269,0.0,0.0,100,0.01,n/a,n/a,-99.99,Henriksen +1-Wire,2013-12-20 23:50:00,
2013-12-20 19:00:00,32.9,32.9,-100.00,West,269,0.0,0.0,100,0.01,n/a,n/a,-99.99,Henriksen +1-Wire,2013-12-21 00:00:00,
2013-12-20 19:10:00,32.9,32.9,-100.00,West,269,0.0,0.0,100,0.01,n/a,n/a,-99.99,Henriksen +1-Wire,2013-12-21 00:10:00,
2013-12-20 19:20:00,33.0,33.0,-100.00,West,269,0.0,0.0,100,0.01,n/a,n/a,-99.99,Henriksen +1-Wire,2013-12-21 00:20:00,
2013-12-20 19:30:00,33.0,33.0,-100.00,West,269,0.0,0.0,100,0.01,n/a,n/a,-99.99,Henriksen +1-Wire,2013-12-21 00:30:00,
2013-12-20 19:40:00,33.0,33.0,-100.00,West,269,0.0,0.0,100,0.01,n/a,n/a,-99.99,Henriksen +1-Wire,2013-12-21 00:40:00,
2013-12-20 19:50:00,33.0,33.0,-100.00,West,269,0.0,0.0,100,0.01,n/a,n/a,-99.99,Henriksen +1-Wire,2013-12-21 00:50:00,
2013-12-20 20:00:00,33.1,33.1,-100.00,West,269,0.0,0.0,100,0.01,n/a,n/a,-99.99,Henriksen +1-Wire,2013-12-21 01:00:00,
2013-12-20 20:10:00,32.8,32.8,-100.00,West,269,0.0,0.0,100,0.01,n/a,n/a,-99.99,Henriksen +1-Wire,2013-12-21 01:10:00,
2013-12-20 20:20:00,33.0,33.0,-100.00,West,269,0.0,0.0,100,0.01,n/a,n/a,-99.99,Henriksen +1-Wire,2013-12-21 01:20:00,
2013-12-20 20:30:00,33.0,33.0,-100.00,West,269,0.0,0.0,100,0.02,n/a,n/a,-99.99,Henriksen +1-Wire,2013-12-21 01:30:00,
2013-12-20 20:40:00,32.9,32.9,-100.00,West,269,0.0,0.0,100,0.02,n/a,n/a,-99.99,Henriksen +1-Wire,2013-12-21 01:40:00,
2013-12-20 20:50:00,32.9,32.9,-100.00,West,269,0.0,0.0,100,0.01,n/a,n/a,-99.99,Henriksen +1-Wire,2013-12-21 01:50:00,
2013-12-20 21:00:00,32.9,32.9,-100.00,West,269,0.0,0.0,100,0.01,n/a,n/a,-99.99,Henriksen +1-Wire,2013-12-21 02:00:00,
2013-12-20 21:10:00,33.1,33.1,-100.00,West,269,0.0,0.0,100,0.02,n/a,n/a,-99.99,Henriksen +1-Wire,2013-12-21 02:10:00,
2013-12-20 21:20:00,33.5,33.5,-100.00,West,269,0.0,0.0,100,0.02,n/a,n/a,-99.99,Henriksen +1-Wire,2013-12-21 02:20:00,
2013-12-20 21:30:00,33.1,33.1,-100.00,West,269,0.0,0.0,100,0.01,n/a,n/a,-99.99,Henriksen +1-Wire,2013-12-21 02:30:00,
2013-12-20 21:40:00,33.0,33.0,-100.00,West,269,0.0,0.0,100,0.01,n/a,n/a,-99.99,Henriksen +1-Wire,2013-12-21 02:40:00,
2013-12-20 21:50:00,32.9,32.9,-100.00,West,269,0.0,0.0,100,0.02,n/a,n/a,-99.99,Henriksen +1-Wire,2013-12-21 02:50:00,
2013-12-20 22:00:00,32.8,25.0,-100.00,West,269,0.0,0.0,72,0.02,n/a,n/a,-99.99,Henriksen +1-Wire,2013-12-21 03:00:00,
2013-12-20 22:10:00,33.0,26.8,-100.00,West,269,0.0,0.0,77,0.01,n/a,n/a,-99.99,Henriksen +1-Wire,2013-12-21 03:10:00,
2013-12-20 22:20:00,32.9,30.9,-100.00,West,269,0.0,0.0,92,0.01,n/a,n/a,-99.99,Henriksen +1-Wire,2013-12-21 03:20:00,
2013-12-20 22:30:00,32.7,32.0,-100.00,West,269,0.0,0.0,97,0.01,n/a,n/a,-99.99,Henriksen +1-Wire,2013-12-21 03:30:00,
2013-12-20 22:40:00,32.6,32.4,-100.00,West,269,0.0,0.0,99,0.01,n/a,n/a,-99.99,Henriksen +1-Wire,2013-12-21 03:40:00,
2013-12-20 22:50:00,32.6,32.5,-100.00,West,269,0.0,0.0,99,0.01,n/a,n/a,-99.99,Henriksen +1-Wire,2013-12-21 03:50:00,
2013-12-20 23:00:00,32.6,23.8,-100.00,West,269,0.0,0.0,69,0.01,n/a,n/a,-99.99,Henriksen +1-Wire,2013-12-21 04:00:00,
2013-12-20 23:10:00,32.6,27.7,-100.00,West,269,0.0,0.0,81,0.01,n/a,n/a,-99.99,Henriksen +1-Wire,2013-12-21 04:10:00,
2013-12-20 23:20:00,32.7,31.1,-100.00,West,269,0.0,0.0,93,0.01,n/a,n/a,-99.99,Henriksen +1-Wire,2013-12-21 04:20:00,
2013-12-20 23:30:00,32.6,32.0,-100.00,West,269,0.0,0.0,97,0.01,n/a,n/a,-99.99,Henriksen +1-Wire,2013-12-21 04:30:00,
2013-12-20 23:40:00,32.6,32.4,-100.00,West,269,0.0,0.0,99,0.02,n/a,n/a,-99.99,Henriksen +1-Wire,2013-12-21 04:40:00,
2013-12-20 23:50:00,32.9,32.8,-100.00,West,269,0.0,0.0,99,0.01,n/a,n/a,-99.99,Henriksen +1-Wire,2013-12-21 04:50:00,